This demonstration page uses our WeatherBlox Daily Observations layout. Learn more.

39.92423, -83.80882

Hourly Observations for June 20, 2020

Temp ( °F °C ) Dew Point ( °F °C ) Humidity (%) Winds ( mph kmh ) Pressure ( in mb ) Visibility ( mi km ) Precip ( " mm )
12:56 am 00:56 Clear 66 18.9 63 17.2 90 90 Calm 30.04 1017 10 16.0934 0.38 9.652
1:56 am 01:56 Clear 64 17.8 64 17.8 100 100 E 3 6 30.03 1017 10 16.0934 0 0
2:56 am 02:56 Clear 65 18.3 63 17.2 93 93 Calm 30.02 1017 10 16.0934 0 0
3:56 am 03:56 Clear 62 16.7 62 16.7 100 100 Calm 30.02 1017 10 16.0934 0 0
4:56 am 04:56 Clear 61 16.1 61 16.1 100 100 E 3 6 30.02 1017 10 16.0934 0 0
5:56 am 05:56 Clear 62 16.7 62 16.7 100 100 Calm 30.04 1017 10 16.0934 0 0
6:56 am 06:56 Sunny 62 16.7 62 16.7 100 100 Calm 30.05 1018 10 16.0934 0 0
7:56 am 07:56 Sunny 68 20 67 19.4 96 96 Calm 30.05 1018 10 16.0934 0 0
8:56 am 08:56 Sunny 74 23.3 66 18.9 76 76 W 5 7 30.06 1018 10 16.0934 0.01 0.254
9:56 am 09:56 Sunny 80 26.7 67 19.4 64 64 WNW 3 6 30.05 1018 10 16.0934 0.3 7.62
10:56 am 10:56 Sunny 83 28.3 64 17.8 53 53 Calm 30.04 1017 10 16.0934 1.14 28.956
11:56 am 11:56 Sunny 87 30.6 61 16.1 42 42 NNW 7 11 30.04 1017 10 16.0934 0.22 5.588
12:56 pm 12:56 Sunny 87 30.6 58 14.4 37 37 Calm 30.03 1017 10 16.0934 0.73 18.542
1:56 pm 13:56 Sunny 89 31.7 60 15.6 38 38 VRB 5 7 30.01 1016 10 16.0934 0 0
2:56 pm 14:56 Mostly Sunny 89 31.7 55 12.8 31 31 VRB 5 7 29.99 1016 10 16.0934 0.01 0.254
3:56 pm 15:56 Sunny 91 32.8 55 12.8 30 30 Calm 29.97 1015 10 16.0934 0 0
4:56 pm 16:56 Sunny 90 32.2 58 14.4 34 34 WSW 7 11 29.96 1014 10 16.0934 0.18 4.572
5:56 pm 17:56 Mostly Cloudy 88 31.1 59 15 38 38 WSW 7 11 29.94 1014 10 16.0934 0.01 0.254
6:56 pm 18:56 Partly Cloudy 86 30 62 16.7 45 45 W 6 9 29.93 1014 10 16.0934 0.01 0.254
7:56 pm 19:56 Mostly Cloudy 85 29.4 62 16.7 46 46 Calm 29.92 1013 10 16.0934 0.15 3.81
8:56 pm 20:56 Cloudy 82 27.8 65 18.3 56 56 SW 6 9 29.92 1013 10 16.0934 0 0
9:56 pm 21:56 Cloudy 79 26.1 65 18.3 62 62 Calm 29.93 1014 10 16.0934 1.16 29.464
10:56 pm 22:56 Partly Cloudy 77 25 65 18.3 66 66 SSE 5 7 29.94 1014 10 16.0934 0.03 0.762
11:56 pm 23:56 Clear 75 23.9 64 17.8 69 69 SW 6 9 29.95 1014 10 16.0934 0.07 1.778

Powered by AerisWeather